Weather History for Rutland, VT

Change the Weather History Date:

Friday, January 18, 2013

  Actual Average Record
Temperature  
Mean Temperature 10 °F -  
Max Temperature 19 °F - 56 °F (1973)
Min Temperature 1 °F - -22 °F (1954)
Degree Days  
Heating Degree Days 55    
Month to date heating degree days 715  
Since 1 July heating degree days 3125  
Cooling Degree Days 0    
Month to date cooling degree days 0  
Year to date cooling degree days 0  
Moisture  
Dew Point -2 °F    
Average Humidity 57    
Maximum Humidity 79    
Minimum Humidity 34    
Precipitation  
Precipitation 0.00 in - 2.53 in (2006)
Month to date precipitation 0.05  
Year to date precipitation 0.05  
Sea Level Pressure  
Sea Level Pressure 30.25 in    
Wind  
Wind Speed 6 mph (NNW)    
Max Wind Speed 13 mph    
Max Gust Speed 20 mph    
Visibility 10 miles    
Events      
T = Trace of Precipitation, MM = Missing Value Source: NWS Daily Summary

Daily Weather History Graph

Daily Weather History Graph

Search for Another Location

Airport:

Trip Planner

Search our weather history database for the weather conditions in past years. The results will help you decide how hot, cold, wet, or windy it might be!

Date:

Astronomy

Jan. 18, 2013 Rise Set
Actual Time 7:20 AM EST 4:45 PM EST
Civil Twilight 6:48 AM EST 5:16 PM EST
Nautical Twilight 6:13 AM EST 5:51 PM EST
Astronomical Twilight 5:39 AM EST 6:25 PM EST
Moon 10:41 AM EST (1/18) No Moon Set
Length of Visible Light 10h 28m
Length of Day
9h 25m
Waxing Crescent, 47% of the Moon is Illuminated
Jan 18
Waxing Crescent
Jan 18
First Quarter
Jan 26
Full
Feb 3
Last Quarter
Feb 10
New

Hourly Weather History & Observations

Time (EST) Temp. Windchill Dew Point Humidity Pressure Visibility Wind Dir Wind Speed Gust Speed Precip Events Conditions
12:15 AM 10.4 °F 0.8 °F -0.4 °F 62% 30.09 in 10.0 mi NW 5.8 mph - N/A   Overcast
12:35 AM 10.4 °F 2.2 °F -0.4 °F 62% 30.10 in 10.0 mi North 4.6 mph - N/A   Overcast
12:55 AM 10.4 °F 0.8 °F -0.4 °F 62% 30.10 in 10.0 mi North 5.8 mph - N/A   Overcast
1:15 AM 10.4 °F -0.4 °F -0.4 °F 62% 30.10 in 10.0 mi North 6.9 mph - N/A   Overcast
1:55 AM 8.6 °F 2.0 °F -0.4 °F 67% 30.10 in 10.0 mi NNW 3.5 mph - N/A   Mostly Cloudy
2:15 AM 8.6 °F - -0.4 °F 67% 30.13 in 10.0 mi Calm Calm - N/A   Partly Cloudy
2:35 AM 8.6 °F - -0.4 °F 67% 30.14 in 10.0 mi Calm Calm - N/A   Clear
2:55 AM 8.6 °F 0.1 °F -2.2 °F 62% 30.14 in 10.0 mi NNE 4.6 mph - N/A   Clear
3:15 AM 8.6 °F -1.3 °F -2.2 °F 62% 30.13 in 10.0 mi North 5.8 mph - N/A   Mostly Cloudy
3:35 AM 6.8 °F -0.1 °F -0.4 °F 72% 30.14 in 10.0 mi North 3.5 mph - N/A   Mostly Cloudy
3:55 AM 6.8 °F -3.5 °F -2.2 °F 67% 30.14 in 10.0 mi North 5.8 mph - N/A   Mostly Cloudy
4:15 AM 6.8 °F -3.5 °F -2.2 °F 67% 30.15 in 10.0 mi NNW 5.8 mph - N/A   Scattered Clouds
4:35 AM 6.8 °F -2.0 °F -2.2 °F 67% 30.16 in 10.0 mi North 4.6 mph - N/A   Clear
4:55 AM 5.0 °F -6.9 °F -2.2 °F 72% 30.17 in 10.0 mi North 6.9 mph - N/A   Clear
5:15 AM 5.0 °F -4.1 °F -2.2 °F 72% 30.18 in 10.0 mi North 4.6 mph - N/A   Clear
5:35 AM 3.2 °F -6.2 °F -2.2 °F 78% 30.19 in 10.0 mi North 4.6 mph - N/A   Clear
5:55 AM 3.2 °F -7.8 °F -4.0 °F 72% 30.19 in 10.0 mi North 5.8 mph - N/A   Clear
6:35 AM 3.2 °F -6.2 °F -2.2 °F 78% 30.22 in 10.0 mi North 4.6 mph - N/A   Clear
6:55 AM 3.2 °F -4.2 °F -2.2 °F 78% 30.23 in 10.0 mi NNE 3.5 mph - N/A   Clear
7:15 AM 1.4 °F - -5.8 °F 72% 30.24 in 10.0 mi Calm Calm - N/A   Clear
7:35 AM 1.4 °F - -0.4 °F 92% 30.26 in 10.0 mi Calm Calm - N/A   Clear
7:55 AM 3.2 °F - -2.2 °F 78% 30.27 in 10.0 mi Calm Calm - N/A   Clear
8:15 AM 3.2 °F - -4.0 °F 72% 30.28 in 10.0 mi Calm Calm - N/A   Clear
8:35 AM 3.2 °F - -0.4 °F 85% 30.29 in 10.0 mi Calm Calm - N/A   Clear
8:55 AM 3.2 °F -4.2 °F -5.8 °F 66% 30.30 in 10.0 mi North 3.5 mph - N/A   Clear
9:15 AM 5.0 °F - -2.2 °F 72% 30.31 in 10.0 mi Calm Calm - N/A   Clear
9:35 AM 6.8 °F - -5.8 °F 56% 30.32 in 10.0 mi Calm Calm - N/A   Clear
9:55 AM 6.8 °F - -7.6 °F 52% 30.32 in 10.0 mi Calm Calm - N/A   Clear
10:15 AM 8.6 °F -1.3 °F -2.2 °F 62% 30.32 in 10.0 mi NNE 5.8 mph - N/A   Clear
10:55 AM 10.4 °F -0.4 °F -5.8 °F 48% 30.31 in 10.0 mi NW 6.9 mph - N/A   Clear
11:15 AM 10.4 °F -0.4 °F -7.6 °F 44% 30.30 in 10.0 mi NNW 6.9 mph - N/A   Clear
11:55 AM 12.2 °F -0.2 °F -5.8 °F 45% 30.29 in 10.0 mi NNW 9.2 mph - N/A   Clear
12:15 PM 12.2 °F -0.2 °F -7.6 °F 41% 30.29 in 10.0 mi NNW 9.2 mph - N/A   Clear
12:35 PM 15.8 °F 3.4 °F -5.8 °F 38% 30.28 in 10.0 mi NNW 10.4 mph - N/A   Clear
12:55 PM 15.8 °F 6.1 °F -2.2 °F 45% 30.28 in 10.0 mi West 6.9 mph - N/A   Partly Cloudy
1:15 PM 17.6 °F 6.4 °F -4.0 °F 38% 30.29 in 10.0 mi WNW 9.2 mph 17.3 mph N/A   Partly Cloudy
1:35 PM 17.6 °F 6.4 °F -7.6 °F 32% 30.29 in 10.0 mi WNW 9.2 mph - N/A   Clear
1:55 PM 17.6 °F 4.3 °F -2.2 °F 42% 30.30 in 10.0 mi SW 12.7 mph 19.6 mph N/A   Partly Cloudy
2:15 PM 17.6 °F 4.3 °F -4.0 °F 38% 30.30 in 10.0 mi West 12.7 mph - N/A   Partly Cloudy
2:55 PM 19.4 °F 7.9 °F -2.2 °F 39% 30.29 in 10.0 mi WSW 10.4 mph - N/A   Clear
3:15 PM 19.4 °F 9.5 °F -5.8 °F 33% 30.29 in 10.0 mi WSW 8.1 mph - N/A   Clear
3:35 PM 19.4 °F 11.5 °F -4.0 °F 36% 30.29 in 10.0 mi WSW 5.8 mph - N/A   Clear
3:55 PM 19.4 °F 7.9 °F -5.8 °F 33% 30.29 in 10.0 mi West 10.4 mph - N/A   Clear
4:15 PM 19.4 °F 10.4 °F -5.8 °F 33% 30.30 in 10.0 mi West 6.9 mph - N/A   Clear
4:35 PM 17.6 °F 8.2 °F -4.0 °F 38% 30.30 in 9.0 mi WSW 6.9 mph - N/A   Clear
4:55 PM 17.6 °F 8.2 °F -4.0 °F 38% 30.31 in 10.0 mi SSW 6.9 mph - N/A   Clear
5:35 PM 17.6 °F 10.7 °F -0.4 °F 45% 30.31 in 10.0 mi SW 4.6 mph - N/A   Clear
5:55 PM 15.8 °F 10.2 °F 1.4 °F 53% 30.32 in 10.0 mi SSW 3.5 mph - N/A   Clear
6:15 PM 15.8 °F 10.2 °F 1.4 °F 53% 30.31 in 10.0 mi South 3.5 mph - N/A   Clear
6:35 PM 15.8 °F 8.6 °F 1.4 °F 53% 30.31 in 10.0 mi South 4.6 mph - N/A   Clear
6:55 PM 15.8 °F 8.6 °F 1.4 °F 53% 30.32 in 10.0 mi SSE 4.6 mph - N/A   Clear
7:15 PM 15.8 °F 8.6 °F 1.4 °F 53% 30.32 in 10.0 mi SSW 4.6 mph - N/A   Clear
7:55 PM 15.8 °F 10.2 °F 1.4 °F 53% 30.31 in 10.0 mi ESE 3.5 mph - N/A   Clear
8:15 PM 14.0 °F - 1.4 °F 57% 30.31 in 10.0 mi Calm Calm - N/A   Clear
8:35 PM 12.2 °F - 1.4 °F 62% 30.30 in 10.0 mi Calm Calm - N/A   Scattered Clouds
8:55 PM 14.0 °F - 3.2 °F 62% 30.30 in 10.0 mi Calm Calm - N/A   Mostly Cloudy
9:15 PM 14.0 °F 8.2 °F 5.0 °F 67% 30.30 in 10.0 mi South 3.5 mph - N/A   Overcast
9:35 PM 14.0 °F 5.1 °F 3.2 °F 62% 30.29 in 10.0 mi ESE 5.8 mph - N/A   Mostly Cloudy
10:35 PM 15.8 °F 8.6 °F 3.2 °F 58% 30.26 in 10.0 mi ESE 4.6 mph - N/A   Overcast
10:55 PM 15.8 °F 7.2 °F 5.0 °F 62% 30.24 in 10.0 mi ESE 5.8 mph - N/A   Overcast
11:15 PM 15.8 °F 10.2 °F 5.0 °F 62% 30.23 in 10.0 mi East 3.5 mph - N/A   Overcast
11:35 PM 15.8 °F 8.6 °F 5.0 °F 62% 30.22 in 10.0 mi East 4.6 mph - N/A   Overcast
11:55 PM 15.8 °F 5.1 °F 6.8 °F 68% 30.22 in 10.0 mi ESE 8.1 mph - N/A   Overcast